Regional Weather Roundup
Issued by NWS

Home | Current Version | Previous Version | Graphics & Text | Print | Product List | Glossary On
Versions: 1 2 3 4 5 6 7 8 9 10 11 12 13 14 15 16 17 18 19 20 21 22 23 24 25 26 27
000
ASUS45 KBOI 251310
RWRID

IDAHO REGIONAL WEATHER ROUNDUP
NATIONAL WEATHER SERVICE BOISE ID
700 AM MDT WED APR 25 2018

NOTE: "FAIR" INDICATES FEW OR NO CLOUDS BELOW 12000 FEET
WITH NO SIGNIFICANT WEATHER AND/OR OBSTRUCTIONS TO VISIBILITY

IDZ012-014-251400-
SOUTHWEST IDAHO


CITY           SKY/WX    TMP DP  RH WIND       PRES   REMARKS
BOISE          CLEAR     45  31  58 SE10      30.17S
CALDWELL       CLEAR     40  32  73 NE7       30.17R
MOUNTAIN HOME  PTCLDY    39  34  82 NE5       30.18S
$$

IDZ016-017-251400-
SOUTHCENTRAL IDAHO


CITY           SKY/WX    TMP DP  RH WIND       PRES   REMARKS
BURLEY         CLEAR     33  30  88 VRB5      30.22S WCI  29
JEROME         CLEAR     41  30  65 NE16      30.21S
TWIN FALLS     CLEAR     42  28  57 S10       30.20F
$$

IDZ019>023-251400-
SOUTHEAST IDAHO


CITY           SKY/WX    TMP DP  RH WIND       PRES   REMARKS
IDAHO FALLS    PTCLDY    30  27  88 NW6       30.27F WCI  24
POCATELLO      CLEAR     33  29  85 SW6       30.26R WCI  28
REXBURG        CLEAR     31  26  82 NE5       30.27F WCI  26
$$

IDZ006-010-011-018-031-032-251400-
CENTRAL IDAHO MOUNTAINS


CITY           SKY/WX    TMP DP  RH WIND       PRES   REMARKS
MCCALL         PTCLDY    30  28  92 CALM      30.22R
HAILEY         CLEAR     34  27  75 NW10      30.29S WCI  26
STANLEY          N/A     23  20  88 CALM      30.30R
SALMON         CLEAR     30  25  81 CALM      30.26S
CHALLIS        CLEAR     30  17  58 CALM      30.28R
$$

IDZ002-004-006-007-026-251400-
NORTHERN IDAHO


CITY           SKY/WX    TMP DP  RH WIND       PRES   REMARKS
LEWISTON       CLEAR     51  37  58 E8        30.08S
LOWELL           N/A     38  35  89 N5        30.22S WCI  34
COEUR D`ALENE  CLOUDY    42  37  82 E6        30.09S
MULLAN PASS    MOCLDY    42  24  49 S6        30.13F
$$




USA.gov is the U.S. government's official web portal to all federal, state and local government web resources and services.